STARLINK-1797, 46698

Orbit data source: Space-Track

STARLINK-1797, 46698 is a payload satellite owned by SpaceX/Seattle (US) in LEO that was launched on Sun, 18 Oct 2020 UTC via an FALCON 9 launch vehicle from the Air Force Eastern Test Range (AFETR). Payload-class satellites include a variety of spacecraft equipped with specific instruments for various scientific and technological missions. These include communications satellites like Starlink; space stations such as the ISS; scientific satellites like the Hubble; Earth observation satellites from companies like Planet Labs, Umbra, and HawkEye 360; GPS; miniature CubeSats for education and research; and military/defense satellites.

Loading next visibility...
Identifier
46698, 2020-073AE
Orbit
LEO
Last TLE update
22 hours ago
Origin
Manufacturer
SpaceX/Seattle
Mission
Operational Commercial Communications
Bus & Motor
STARLINK, Unknown motor
Mass
260 kg wet, ~248 kg dry
Launch date (UTC)
2020-10-18 (5 years ago)
Launch vehicle
FALCON 9
Launch site
Air Force Eastern Test Range (AFETR)
Object type
Payload
Rocket body
Debris
Shape & HBR
Box + 1 Pan, 8.86 m
Radar Cross Section
13.562 m², Large (>1 m²)

Expand to show TLE details & history

TLE from 22 hours ago
0 STARLINK-1797
1 46698U 20073AE  25128.38070724 -.00000422  00000-0 -94444-5 0  9994
2 46698  53.0535 172.7820 0001513  82.6785 277.4376 15.06404074251105
Epoch: 2025-05-08T09:08Z
Definitive object data (Epoch: 2025-05-08T09:08:13.105Z)
Latitude
-0.00002°
Longitude
169.27536°
Altitude
547.943 km
Speed
7.589 km/s
True Right ascension
11h 31m 07s
True Declination
0° 00' 00"
Sunlit
Object was in full shadow at TLE epoch
Visualization TLE readout
Latitude
-8.96959°
Longitude
-7.97563°
Altitude
549.961 km
Speed
7.587 km/s
Apparent Right ascension
00h 59m 30s
Apparent Declination
-25° 28' 13"
Sunlit
Object is in daylight
Visualization observer readout
Local Sidereal Time
14:49:46
Azimuth
66.267° ENE
Elevation
-62.844°
Doppler factor
1
Orbital elements
Apogee altitude
548.518 km
Perigee altitude
546.422 km
Semi-major axis
6,925.607 km
Eccentricity
0.0001513
Inclination
53.0535°
RAAN
172.782°
Arg. of periapsis
82.6785°
True anomaly
277.42041°
Mean anomaly
277.4376°
Eccentric anomaly
277.429°
Mean motion
3.76579 °/min
BSTAR
-0.0000094444
Orbital period
95.6 mins
Loading maneuver chart data...
Loading SW <> Apogee altitude chart data...
Loading historical data...
Loading historical data...
Loading historical data...
Loading historical data...
Loading historical data...
Loading historical data...
Loading historical data...

STARLINK-1797 Visibility forecast

Observer location: undefined°, undefined°

Span
Click to sort rows by Start time (UTC) header in descending order
Start Az.
Max El. time (UTC)
Max El. Az.
Max El.
End time (UTC)
End Az.
5 mins2025-05-09 07:42:54.055Z302.216° NW2025-05-09 07:45:54.055Z350.971° N16.492°2025-05-09 07:47:54.055Z22.05° NNE
5 mins2025-05-09 11:04:54.055Z341.765° N2025-05-09 11:06:54.055Z22.81° NE23.895°2025-05-09 11:09:54.055Z79.174° E
6 mins2025-05-09 12:43:54.055Z299.159° NW2025-05-09 12:46:54.055Z214.684° SW40.453°2025-05-09 12:49:54.055Z147.587° SSE
5 mins2025-05-10 04:17:54.055Z168.132° S2025-05-10 04:19:54.055Z124.109° SE23.377°2025-05-10 04:22:54.055Z74.711° E
6 mins2025-05-10 05:56:54.055Z265.159° W2025-05-10 05:58:54.055Z321.086° NNW35.447°2025-05-10 06:02:54.055Z40.411° NE
|